Regional Weather Roundup
Issued by NWS

Home | Current Version | Previous Version | Graphics & Text | Print | Product List | Glossary On
Versions: 1 2 3 4 5 6 7 8 9 10 11 12 13 14 15 16 17 18 19 20 21 22 23 24 25 26 27 28 29 30 31 32 33 34 35 36 37 38 39 40 41 42 43 44 45 46 47 48 49 50
000
ASUS44 KMEG 040200
RWRTN
TENNESSEE HOURLY STATE WEATHER ROUNDUP
NATIONAL WEATHER SERVICE MEMPHIS TN
800 PM CST SAT DEC 03 2016

TNZ002-004-019-021-049-052-054-088>092-040300-
WEST TENNESSEE

CITY           SKY/WX    TMP DP  RH WIND       PRES   REMARKS
MEMPHIS INTL   LGT RAIN  43  42  97 NE10      30.17F
NWS MEMPHIS      N/A     42 N/A N/A MISG        N/A
JACKSON        LGT RAIN  42  32  67 NE8       30.23F
DYERSBURG      CLOUDY   N/A N/A N/A E7        30.23F
UNION CITY     CLOUDY    39  37  93 CALM      30.26F
PARIS          CLOUDY    37  34  87 CALM      30.27S
LEXINGTON      CLOUDY    39  37  93 NE6       30.24F WCI  35
$$

TNZ008-025-027-028-033-062-065-066-040300-
NORTH MIDDLE TENNESSEE

CITY           SKY/WX    TMP DP  RH WIND       PRES   REMARKS
NASHVILLE      LGT RAIN  41  34  76 NE8       30.28F
CLARKSVILLE    CLOUDY    41  32  70 E5        30.28F
SMYRNA         LGT RAIN  41  37  86 N8        30.28F
CROSSVILLE     LGT RAIN  38  33  82 CALM      30.24S
$$

TNZ061-075-076-078-094-096-097-040300-
SOUTH MIDDLE TENNESSEE

CITY           SKY/WX    TMP DP  RH WIND       PRES   REMARKS
TULLAHOMA      CLOUDY    39  36  87 CALM      30.23S
WINCHESTER     CLOUDY    39  39 100 N6        30.23S WCI  35
MCMINNVILLE    CLOUDY    39  37  93 NE7       30.24F WCI  34
SHELBYVILLE    CLOUDY    41  39  93 N3        30.25F
$$

TNZ017-018-042-046-047-040300-
NORTHEAST TENNESSEE

CITY           SKY/WX    TMP DP  RH WIND       PRES   REMARKS
TRI CITIES     CLOUDY    40  31  70 CALM      30.25F
$$

TNZ012-013-036-069-073-074-040300-
CENTRAL EAST TENNESSEE

CITY           SKY/WX    TMP DP  RH WIND       PRES   REMARKS
KNOXVILLE      LGT RAIN  43  34  70 N5        30.25R
OAK RIDGE      LGT RAIN  44  33  65 CALM      30.28R
GATLINBURG     CLEAR     41  30  65 CALM      30.25S
$$

TNZ083-085-099-040300-
SOUTHEAST TENNESSEE

CITY           SKY/WX    TMP DP  RH WIND       PRES   REMARKS
CHATTANOOGA    CLOUDY    44  36  73 NE8       30.24F
$$

SKY/WX REPORTED AS FAIR MEANS FEW OR NO CLOUDS BELOW
12 THOUSAND FEET.





USA.gov is the U.S. government's official web portal to all federal, state and local government web resources and services.